Вернуться в каталог

FENGYUN 1C DEB

АктивенSSO
NORAD 32195·DEBRIS·🇨🇳 China

Запущен May 10, 1999 с Taiyuan Satellite Launch Center

Loading…

Ближайшие Пролёты (ближайшие 24 часа)

TLE

УстаревающийSource: Space-Track

Эпоха: Sep 4, 2026, 05:42 UTC

1 32195U 99025CUR 26247.23782839  .00000359  00000-0  22791-3 0  9999
2 32195  98.7804 247.6379 0067617 270.7740  88.5683 14.08882021677204

Отслеживайте FENGYUN 1C DEB в реальном времени с AllMySat

Download on the App Store